View from above orbital plane
|
View from above satellite
|
Ground track
|
The orbit data is extracted from the following two-line orbital elements,
1 19210U 88050A 21067.47934143 .00000044 00000-0 10134-5 0 9997
2 19210 82.5185 153.5210 0011262 299.0440 60.9658 15.06187043761408
Epoch (UTC): | 08 March 2021 11:30:15 |
Eccentricity: | 0.0011262 |
inclination: | 82.5185° |
perigee height: | 540 km |
apogee height: | 555 km |
right ascension of ascending node: | 153.5210° |
argument of perigee: | 299.0440° |
revolutions per day: | 15.06187043 |
mean anomaly at epoch: | 60.9658° |
orbit number at epoch: | 76140 |
The dashed part of the orbit path shows where the satellite is in the earth's shadow,
|
|